Temp
21 19 19 19 20 20 20 20 20 18 19 20 19 19 19 18 18 18 18 19 19 20
21 20 19 19 20 19 19 20 19 19 18 18 18 18 18 18 18 18 19 18 19 19
21 21 21 19 20 20 20 20 20 19 19 18 18 18 19 19 18 18 18 19 19 18
20 20 21 20 21 21 21 21 21 21 21 19 19 18 19 19 19 18 18 18 18 18
20 21 20 22 22 22 22 21 21 21 21 21 20 19 19 19 19 18 18 19 18 18
21 20 20 22 22 22 22 22 22 21 21 21 21 20 19 20 19 19 19 19 19 19
23 22 22 23 23 23 23 22 22 22 21 21 22 20 19 19 21 20 19 19 19 19
24 24 23 23 23 23 23 23 23 22 22 22 22 21 21 20 20 20 20 19 19 19
24 24 24 24 24 24 24 23 23 23 22 22 21 21 22 22 21 20 20 20 21 21
24 24 25 25 24 24 24 24 24 23 23 23 22 22 23 23 22 20 20 21 21 21
25 24 24 24 25 25 24 24 24 24 23 23 23 23 23 23 22 22 22 21 20 22
24 25 24 23 24 25 24 24 24 24 24 24 24 24 24 23 22 22 23 23 23 23
24 24 25 24 24 24 24 25 24 23 24 24 24 24 24 24 23 22 23 24 23 24
21 23 24 24 24 25 25 23 24 24 24 24 25 24 25 25 24 23 21 21 22 21
Height
1565 1571 1576 1579 1583 1586 1589 1592 1594 1594 1596 1598 1600 1602 1603 1605 1606 1608 1608 1610 1611 1613
1559 1565 1571 1575 1577 1582 1584 1588 1589 1591 1592 1595 1597 1599 1600 1603 1604 1605 1606 1607 1608 1610
1551 1558 1564 1569 1572 1575 1580 1582 1585 1586 1588 1590 1593 1595 1597 1600 1601 1602 1604 1606 1607 1607
1544 1551 1557 1562 1566 1569 1573 1576 1580 1582 1583 1585 1588 1591 1593 1595 1598 1599 1600 1602 1603 1603
1538 1544 1549 1554 1559 1564 1567 1571 1574 1577 1579 1581 1583 1586 1588 1590 1594 1594 1596 1598 1599 1600
1529 1535 1541 1546 1553 1557 1561 1565 1568 1571 1573 1575 1578 1580 1582 1585 1587 1590 1591 1593 1595 1597
1519 1525 1532 1539 1545 1550 1554 1558 1562 1565 1568 1570 1573 1575 1578 1580 1582 1584 1586 1588 1590 1592
1511 1518 1525 1531 1537 1543 1547 1551 1555 1559 1562 1565 1567 1569 1571 1574 1576 1578 1580 1583 1584 1586
1503 1510 1516 1523 1529 1534 1539 1543 1548 1551 1554 1557 1560 1562 1564 1567 1570 1573 1575 1576 1578 1579
1493 1500 1506 1513 1520 1525 1530 1536 1539 1543 1546 1549 1552 1555 1558 1561 1564 1567 1568 1570 1571 1572
1485 1491 1498 1504 1510 1516 1522 1526 1531 1534 1538 1541 1544 1547 1551 1555 1558 1559 1560 1562 1564 1565
1475 1482 1489 1495 1500 1507 1513 1518 1522 1526 1530 1532 1535 1539 1543 1547 1550 1551 1551 1554 1555 1556
1467 1474 1480 1487 1493 1499 1505 1510 1515 1518 1521 1524 1527 1531 1535 1539 1541 1542 1543 1545 1546 1547
1461 1468 1475 1481 1487 1493 1498 1503 1507 1510 1514 1517 1519 1522 1525 1529 1531 1533 1536 1537 1540 1540
Wind_Speed
37 30 27 24 20 18 17 16 15 16 16 14 12 11 11 8 8 8 7 11 10 8
40 38 28 27 24 22 19 17 17 17 17 17 15 15 13 10 10 10 8 9 10 9
43 41 39 30 30 25 21 22 19 18 19 18 17 18 17 13 12 11 9 10 12 10
41 41 41 37 35 32 28 26 22 21 19 19 18 19 21 18 15 13 12 12 13 13
43 43 37 41 38 34 31 29 25 24 22 22 21 20 21 21 17 17 16 15 15 15
44 42 41 42 39 36 33 30 29 28 27 25 24 23 23 24 21 20 18 17 17 16
48 47 45 44 42 38 35 32 31 31 30 28 26 25 24 23 25 25 21 20 20 19
47 47 46 45 42 39 37 34 33 32 32 30 29 26 27 26 25 26 25 23 22 23
48 48 47 46 43 41 38 36 34 35 35 34 31 29 31 30 27 26 26 27 27 28
49 49 47 45 44 44 41 38 36 37 36 36 35 33 32 32 32 27 29 31 30 28
46 47 46 45 44 43 41 40 39 39 38 37 37 36 34 33 33 35 37 35 33 35
45 45 45 44 45 43 41 40 40 39 39 39 39 38 36 34 35 38 40 40 40 41
45 43 43 43 42 41 40 39 37 37 38 39 39 37 36 34 35 37 38 39 41 43
40 41 39 39 37 37 37 34 37 35 36 37 37 37 36 34 36 36 31 30 30 29
Wind_Direction
219 216 218 223 215 222 221 225 223 233 232 239 241 240 237 225 214 220 211 217 215 225
219 217 219 219 231 225 226 226 230 230 231 233 237 232 230 219 226 216 230 229 230 221
219 221 223 227 230 230 227 235 228 238 231 232 230 228 229 227 235 224 224 220 230 222
218 222 226 228 235 236 235 236 236 242 238 227 224 227 232 228 222 236 231 226 231 236
218 220 221 228 232 235 234 233 234 238 237 232 228 228 233 235 230 235 236 236 237 239
216 218 220 226 228 232 233 233 233 235 237 235 232 231 235 239 237 235 237 235 236 239
216 217 219 222 225 229 232 234 234 234 236 237 236 233 234 237 242 242 240 238 237 238
214 216 219 222 224 227 230 233 234 236 237 239 238 234 237 236 238 241 242 241 244 245
215 217 220 224 227 229 230 233 234 233 234 236 237 236 237 240 240 241 242 244 248 249
217 217 220 223 226 229 229 230 230 231 232 236 239 241 243 243 244 242 246 248 249 249
219 219 218 220 223 226 226 227 228 230 233 237 240 242 244 245 246 248 247 247 251 256
219 219 219 219 220 221 222 223 227 230 233 236 240 242 243 244 245 248 249 251 253 256
217 217 217 218 218 218 220 222 224 229 233 237 240 242 243 244 244 247 250 254 255 256
214 218 219 217 215 217 219 219 225 228 233 237 240 241 242 240 240 241 244 246 250 255